| time (UTC) | temp C | wind direction | speed KPH | gust KPH | rain 1hr cm | rain 24hr cm | rain mn cm | humidity % | barometer mb |
| 20260505054527 | 13 | 13 | 16.1 | 32.2 | 0.00 | 0.00 | 0.00 | 60 | 858.3 |
| 20260505053026 | 13 | 61 | 20.9 | 40.2 | 0.00 | 0.00 | 0.00 | 60 | 858.2 |
| 20260505051526 | 14 | 41 | 16.1 | 32.2 | 0.00 | 0.00 | 0.00 | 60 | 857.9 |
| 20260505041539 | 16 | 35 | 9.7 | 25.7 | 0.00 | 0.00 | 0.00 | 50 | 857.1 |
| 20260505040024 | 16 | 27 | 9.7 | 24.1 | 0.00 | 0.00 | 0.00 | 44 | 856.9 |
| 20260505034521 | 16 | 53 | 14.5 | 25.7 | 0.00 | 0.00 | 0.00 | 44 | 856.5 |
| 20260505033021 | 17 | 40 | 8.0 | 19.3 | 0.00 | 0.00 | 0.00 | 45 | 856.4 |
| 20260505031520 | 17 | 62 | 11.3 | 20.9 | 0.00 | 0.00 | 0.00 | 44 | 856.2 |
| 20260505030021 | 17 | 55 | 12.9 | 27.4 | 0.00 | 0.00 | 0.00 | 44 | 856.0 |
| 20260505024522 | 18 | 22 | 9.7 | 19.3 | 0.00 | 0.00 | 0.00 | 43 | 855.8 |
| 20260505023018 | 18 | 28 | 9.7 | 22.5 | 0.00 | 0.00 | 0.00 | 39 | 855.7 |
| 20260505021525 | 18 | 9 | 6.4 | 14.5 | 0.00 | 0.00 | 0.00 | 38 | 855.5 |
| 20260505020020 | 18 | 5 | 8.0 | 24.1 | 0.00 | 0.00 | 0.00 | 37 | 855.3 |
| 20260505014517 | 19 | 49 | 11.3 | 20.9 | 0.00 | 0.00 | 0.00 | 37 | 855.4 |
| 20260505013019 | 20 | 51 | 16.1 | 24.1 | 0.00 | 0.00 | 0.00 | 35 | 855.5 |
| 20260505011526 | 20 | 36 | 3.2 | 6.4 | 0.00 | 0.00 | 0.00 | 30 | 855.4 |
| 20260505010015 | 20 | 84 | 1.6 | 4.8 | 0.00 | 0.00 | 0.00 | 31 | 855.5 |
| 20260505004526 | 20 | 82 | 1.6 | 6.4 | 0.00 | 0.00 | 0.00 | 31 | 855.6 |
| 20260505003013 | 20 | 63 | 0.0 | 8.0 | 0.00 | 0.00 | 0.00 | 31 | 855.6 |
| 20260505001512 | 20 | 41 | 3.2 | 6.4 | 0.00 | 0.00 | 0.00 | 33 | 855.7 |
| 20260505000017 | 20 | 296 | 3.2 | 12.9 | 0.00 | 0.00 | 0.00 | 34 | 855.7 |
| 20260504234509 | 20 | 318 | 0.0 | 12.9 | 0.00 | 0.00 | 0.00 | 33 | 855.9 |
| 20260504233009 | 20 | 268 | 6.4 | 17.7 | 0.00 | 0.00 | 0.00 | 33 | 856.0 |
| 20260504231509 | 20 | 300 | 8.0 | 19.3 | 0.00 | 0.00 | 0.00 | 33 | 856.0 |
| 20260504230015 | 20 | 293 | 9.7 | 22.5 | 0.00 | 0.00 | 0.00 | 33 | 856.1 |
| 20260504224507 | 20 | 298 | 12.9 | 24.1 | 0.00 | 0.00 | 0.00 | 33 | 856.1 |
| 20260504223006 | 21 | 270 | 6.4 | 19.3 | 0.00 | 0.00 | 0.00 | 31 | 856.1 |
| 20260504221506 | 22 | 194 | 3.2 | 6.4 | 0.00 | 0.00 | 0.00 | 32 | 856.0 |
| 20260504220005 | 21 | 195 | 1.6 | 9.7 | 0.00 | 0.00 | 0.00 | 33 | 856.1 |
| 20260504214503 | 21 | 142 | 0.0 | 3.2 | 0.00 | 0.00 | 0.00 | 35 | 856.3 |
| 20260504213005 | 20 | 239 | 1.6 | 6.4 | 0.00 | 0.00 | 0.00 | 37 | 856.4 |
| 20260504211607 | 21 | 189 | 1.6 | 12.9 | 0.00 | 0.00 | 0.00 | 35 | 856.4 |
| 20260504210100 | 21 | 314 | 0.0 | 8.0 | 0.00 | 0.00 | 0.00 | 32 | 856.5 |
| 20260504204558 | 22 | 265 | 0.0 | 11.3 | 0.00 | 0.00 | 0.00 | 32 | 856.5 |
| 20260504203120 | 22 | 114 | 0.0 | 6.4 | 0.00 | 0.00 | 0.00 | 29 | 856.5 |
| 20260504201556 | 22 | 194 | 0.0 | 8.0 | 0.00 | 0.00 | 0.00 | 30 | 856.5 |
| 20260504200055 | 22 | 165 | 0.0 | 8.0 | 0.00 | 0.00 | 0.00 | 30 | 856.6 |
| 20260504194602 | 22 | 177 | 0.0 | 3.2 | 0.00 | 0.00 | 0.00 | 28 | 856.7 |
| 20260504193059 | 22 | 63 | 1.6 | 16.1 | 0.00 | 0.00 | 0.00 | 28 | 856.9 |
| 20260504191550 | 22 | 28 | 6.4 | 12.9 | 0.00 | 0.00 | 0.00 | 30 | 856.9 |
| 20260504184556 | 23 | 28 | 9.7 | 19.3 | 0.00 | 0.00 | 0.00 | 29 | 857.4 |
| 20260504183045 | 22 | 22 | 9.7 | 20.9 | 0.00 | 0.00 | 0.00 | 30 | 857.4 |
| 20260504181544 | 22 | 43 | 9.7 | 22.5 | 0.00 | 0.00 | 0.00 | 31 | 857.6 |
| 20260504180040 | 22 | 355 | 11.3 | 25.7 | 0.00 | 0.00 | 0.00 | 30 | 857.8 |
| 20260504174536 | 22 | 31 | 11.3 | 20.9 | 0.00 | 0.00 | 0.00 | 31 | 857.9 |
| 20260504173042 | 21 | 10 | 14.5 | 20.9 | 0.00 | 0.00 | 0.00 | 32 | 858.1 |
| 20260504171527 | 21 | 33 | 12.9 | 24.1 | 0.00 | 0.00 | 0.00 | 32 | 858.3 |
| 20260504140104 | 16 | 94 | 8.0 | 16.1 | 0.00 | 0.00 | 0.00 | 50 | 859.0 |
| 20260504081517 | 15 | 27 | 6.4 | 11.3 | 0.00 | 0.00 | 0.00 | 41 | 858.6 |